Location: ????
(30.1475°N, 31.1342°E)
Time: 02:37:45
(UTC+00:00)

ARIANE 5 R/B - Pass Details

Date: 29 March 2023
Orbit: 748 x 794 km, 98.8° (Epoch: 29 May)

Event Time Altitude Azimuth Distance (km) Brightness Sun altitude
Rises 01:13:39 0° 28° (NNE) 3,279 6.5 -33.1°
Reaches altitude 10° 01:16:20 10° 41° (NE) 2,353 5.7 -32.6°
Maximum altitude 01:20:40 27° 97° (E) 1,494 4.4 -31.7°
Enters shadow 01:23:43 16° 144° (SE) 1,967 4.7 -31.2°
